Weather History for Lancaster, CA

Change the Weather History Date:

Wednesday, November 21, 2012

  Actual Average Record
Temperature  
Mean Temperature 54 °F 49 °F  
Max Temperature 72 °F 64 °F 78 °F (1996)
Min Temperature 36 °F 34 °F 15 °F (1979)
Degree Days  
Heating Degree Days 11    
Month to date heating degree days 244  
Since 1 July heating degree days 336  
Cooling Degree Days 0    
Month to date cooling degree days 0  
Year to date cooling degree days 2282  
Growing Degree Days 4 (Base 50)    
Moisture  
Dew Point 35 °F    
Average Humidity 48    
Maximum Humidity 70    
Minimum Humidity 25    
Precipitation  
Precipitation 0.00 in 0.02 in 1.30 in (2013)
Month to date precipitation T 0.35  
Year to date precipitation 1.74 6.04  
Since 1 July precipitation 0.04 1.13  
Snow  
Snow 0.00 in - 0.00 in ()
Month to date snowfall 0.0  
Since 1 July snowfall 0.0  
Since 1 September snowfall 0.0  
Snow Depth -    
Sea Level Pressure  
Sea Level Pressure 30.08 in    
Wind  
Wind Speed 13 mph (West)    
Max Wind Speed 28 mph    
Max Gust Speed 33 mph    
Visibility 10 miles    
Events      
T = Trace of Precipitation, MM = Missing Value Source: NWS Daily Summary

Daily Weather History Graph

Daily Weather History Graph

Search for Another Location

Airport:

Trip Planner

Search our weather history database for the weather conditions in past years. The results will help you decide how hot, cold, wet, or windy it might be!

Date:

Astronomy

Nov. 21, 2012 Rise Set
Actual Time 6:33 AM PST 4:44 PM PST
Civil Twilight 6:05 AM PST 5:11 PM PST
Nautical Twilight 5:35 AM PST 5:42 PM PST
Astronomical Twilight 5:05 AM PST 6:12 PM PST
Moon 12:50 PM PST (11/21) 12:11 AM PST (11/21)
Length of Visible Light 11h 05m
Length of Day
10h 11m
Waxing Gibbous, 63% of the Moon is Illuminated
Nov 21
Waxing Gibbous
Nov 28
Full
Dec 6
Last Quarter
Dec 13
New
Dec 19
First Quarter

Hourly Weather History & Observations

Time (PST) Temp. Windchill Dew Point Humidity Pressure Visibility Wind Dir Wind Speed Gust Speed Precip Events Conditions
12:56 AM 43.0 °F - 32.0 °F 65% 30.09 in 10.0 mi Calm Calm - N/A   Clear
1:56 AM 42.1 °F - 32.0 °F 67% 30.09 in 10.0 mi Calm Calm - N/A   Clear
2:56 AM 43.0 °F - 33.1 °F 68% 30.08 in 10.0 mi Calm Calm - N/A   Clear
3:56 AM 43.0 °F - 30.9 °F 62% 30.07 in 10.0 mi Calm Calm - N/A   Clear
4:56 AM 43.0 °F 39.5 °F 33.1 °F 68% 30.09 in 10.0 mi SE 5.8 mph - N/A   Clear
5:56 AM 39.9 °F - 30.0 °F 68% 30.11 in 10.0 mi Calm Calm - N/A   Clear
6:56 AM 37.9 °F - 28.9 °F 70% 30.13 in 10.0 mi Calm Calm - N/A   Clear
7:56 AM 48.0 °F - 35.1 °F 61% 30.14 in 10.0 mi Calm Calm - N/A   Clear
8:56 AM 62.1 °F - 35.1 °F 37% 30.12 in 10.0 mi SW 5.8 mph - N/A   Clear
9:56 AM 66.9 °F - 32.0 °F 27% 30.11 in 10.0 mi WNW 17.3 mph - N/A   Clear
10:56 AM 69.1 °F - 35.1 °F 29% 30.10 in 10.0 mi West 23.0 mph - N/A   Clear
11:56 AM 70.0 °F - 34.0 °F 27% 30.07 in 10.0 mi West 25.3 mph 31.1 mph N/A   Clear
12:56 PM 71.1 °F - 33.1 °F 25% 30.05 in 10.0 mi West 23.0 mph - N/A   Clear
1:56 PM 71.1 °F - 33.1 °F 25% 30.04 in 10.0 mi West 23.0 mph - N/A   Clear
2:56 PM 69.1 °F - 35.1 °F 29% 30.04 in 10.0 mi West 25.3 mph - N/A   Clear
3:56 PM 66.0 °F - 37.0 °F 34% 30.04 in 10.0 mi West 24.2 mph 31.1 mph N/A   Clear
4:56 PM 61.0 °F - 37.0 °F 41% 30.06 in 10.0 mi West 15.0 mph 26.5 mph N/A   Clear
5:56 PM 59.0 °F - 39.0 °F 48% 30.08 in 10.0 mi West 15.0 mph 23.0 mph N/A   Clear
6:56 PM 57.9 °F - 39.0 °F 49% 30.09 in 10.0 mi West 19.6 mph - N/A   Clear
7:56 PM 57.0 °F - 39.9 °F 53% 30.08 in 10.0 mi West 16.1 mph - N/A   Clear
8:56 PM 57.0 °F - 41.0 °F 55% 30.07 in 10.0 mi West 20.7 mph - N/A   Clear
9:56 PM 57.0 °F - 41.0 °F 55% 30.05 in 10.0 mi West 24.2 mph 31.1 mph N/A   Clear
10:56 PM 55.9 °F - 41.0 °F 57% 30.06 in 10.0 mi West 12.7 mph - N/A   Clear
11:56 PM 55.0 °F - 41.0 °F 59% 30.07 in 10.0 mi West 10.4 mph - N/A   Clear